Location: Yecla
(38.6122°N, 1.1101°W)
Time: 00:52:56
(UTC+02:00)

ISS - Pass Details

Date: 24 May 2019
Orbit: 411 x 421 km, 51.6° (Epoch: 21 October)

Event Time Altitude Azimuth Distance (km) Brightness Sun altitude
Rises 00:49:49 0° 316° (NW) 2,380 1.0 -28.4°
Reaches altitude 10° 00:53:22 10° 355° (N) 1,519 0.0 -28.6°
Maximum altitude 00:54:21 11° 11° (NNE) 1,464 -0.3 -28.7°
Drops below altitude 10° 00:55:20 10° 28° (NNE) 1,521 -0.4 -28.7°
Enters shadow 00:55:40 - 34° (NNE) 1,565 -0.4 -28.8°
